sat.trackr.live / text

‹ back to catalog

STARLINK-37542

NORAD 68917 · 2026-097Y

PAYLOAD ACTIVE UNKNOWN

§ Identity

Operator
Country
US
Launch date
2026-04-30
Launch site
AFWTR
Launch vehicle
Mass (kg)
RCS (m²)

Purposes: comms

External: N2YO · Heavens-Above · Gunter

§ Orbital elements

Epoch: 2026-09-18T19:00:06.244416Z

Period
93.91 min
Inclination
97.2847°
Eccentricity
0.0002869
Mean motion
15.33457671 rev/d
Perigee alt
463.5 km
Apogee alt
467.5 km
Semi-major
6,843.6 km
B*
6.5601e-4
RAAN
96.0134°
Arg perigee
95.5490°
Mean anomaly
264.6080°
Rev number
2,183

§ Raw data

STARLINK-375421 68917U 26097Y   26261.79173894  .00021173  00000+0  65601-3 0  99942 68917  97.2847  96.0134 0002869  95.5490 264.6080 15.33457671 21832

JSON: /api/v1/satellites/68917 · /tle

For live sub-satellite position, see the globe view (requires WebGL).

§ Visibility from observer

Set your observer location to see the next 7 days of passes ≥ 10°. The values pass through the URL so the page stays shareable.

No JS? Fill the form by hand. The geolocation button needs JavaScript.